Weather Roundup
Issued by NWS Springfield, MO

Home | Current Version | Previous Version | Text Only | Print | Product List | Glossary On
Versions: 1 2 3 4 5 6 7 8 9 10 11 12 13 14 15 16 17 18 19 20 21 22 23 24 25 26 27 28 29 30 31 32 33 34 35 36 37 38 39 40 41 42 43 44 45 46 47 48 49 50
000
NZUS99 KSGF 211207
HRRSGF

HOURLY WEATHER
NATIONAL WEATHER SERVICE SPRINGFIELD MO
600 AM CST SUN DEC 21 2014

......SGF CWA......

CITY           SKY/WX    TMP DP  RH WIND       PRES   REMARKS
SPRINGFIELD    CLOUDY    41  36  82 S9        30.10S
6HR MIN TEMP:  40; 6HR MAX TEMP:  41;

JOPLIN         CLOUDY    43  39  86 S8        30.09S
6HR MIN TEMP:  43; 6HR MAX TEMP:  43;

WEST PLAINS    CLOUDY    38  34  85 SE6       30.16F WCI  33
6HR MIN TEMP:  38; 6HR MAX TEMP:  40;

ROLLA          CLOUDY    39  34  82 S9        30.14R WCI  33
6HR MIN TEMP:  39; 6HR MAX TEMP:  40;

OSAGE BEACH    CLOUDY    43  34  70 SE3       30.14S

......SURROUNDING SGF CWA......

CITY           SKY/WX    TMP DP  RH WIND       PRES   REMARKS
CHANUTE        CLOUDY    40  38  93 SW10      30.05F WCI  33
PARSONS        CLOUDY    42  38  85 CALM      30.07F
COFFEYVILLE    CLOUDY    41  38  89 S8        30.07F
EMPORIA        CLOUDY    38  38 100 S8        30.02S FOG     WCI  32
GROVE OK       CLOUDY    43  43 100 SE6       30.11S FOG
ROGERS AR      CLOUDY    41  39  93 SE8       30.11F
SILOAM SPRINGS CLOUDY    43  36  75 SE6       30.12S
HARRISON AR    CLOUDY    39  38  96 SE7       30.14S FOG     WCI  34
NEAR YELLVILLE CLOUDY    39  34  81 CALM      30.17R

......KANSAS AND MISSOURI......

CITY           SKY/WX    TMP DP  RH WIND       PRES   REMARKS
KANSAS CTY INT CLOUDY    38  34  85 S14       30.05S WCI  30
DOWNTOWN KC    CLOUDY    39  35  86 S8        30.07S WCI  33
COLUMBIA       CLOUDY    41  36  82 S9        30.14S
SEDALIA        CLOUDY    41  35  79 S8        30.12F
ST JOSEPH      CLOUDY    37  34  89 S8        30.04F WCI  31
ST LOUIS       CLOUDY    41  32  70 SE9       30.22R
SPIRIT OF STL  CLOUDY    40  34  79 E5        30.20R
KIRKSVILLE     CLOUDY    38  36  92 S7        30.11S WCI  33
WICHITA        CLOUDY    41  36  82 S14       30.00S
TOPEKA         CLOUDY   N/A N/A N/A S9        30.03F
OLATHE         CLOUDY    36  36 100 S8        30.05F FOG     WCI  30

......TENNESSEE......

CITY           SKY/WX    TMP DP  RH WIND       PRES   REMARKS
MEMPHIS        CLEAR     33  27  78 E5        30.20S WCI  29
NASHVILLE      CLEAR     25  23  92 S3        30.25R

......ARKANSAS.......

CITY           SKY/WX    TMP DP  RH WIND       PRES   REMARKS
FAYETTEVILLE   CLOUDY    41  39  93 SE5       30.12S
FT SMITH       CLOUDY    44  40  85 E6        30.14S
LITTLE ROCK    CLEAR     34  31  88 CALM      30.20S FOG

......OKLAHOMA.......

CITY           SKY/WX    TMP DP  RH WIND       PRES   REMARKS
TULSA          CLOUDY    43  42  97 S8        30.09F
PONCA CITY     CLOUDY    43  37  79 S8G17     30.03F
MCALESTER      CLOUDY    46  42  86 S5        30.11F
OKLAHOMA CITY  CLOUDY    43  38  82 S10       30.03S

......IOWA............

CITY           SKY/WX    TMP DP  RH WIND       PRES   REMARKS
DES MOINES     CLOUDY    38  34  85 S12       30.01S WCI  30
QUAD CITIES    CLOUDY    35  32  88 S8        30.13S WCI  29

......ILLINOIS........

CITY           SKY/WX    TMP DP  RH WIND       PRES   REMARKS
QUINCY         CLOUDY    37  34  89 SE6       30.15S WCI  32
CHICAGO        CLOUDY    32  27  81 S8        30.20F WCI  25




USA.gov is the U.S. government's official web portal to all federal, state and local government web resources and services.